Tracking 25195 objects as of 20-Jan-2022
HD Live streaming from Space Station
objects crossing your sky now

SBS 3

Track SBS 3 now!
SBS 3 is classified as:


NORAD ID: 13651
Int'l Code: 1982-110B
Perigee: 35,852.6 km
Apogee: 35,931.7 km
Inclination: 14.2 °
Period: 1,441.1 minutes
Semi major axis: 42263 km
RCS: 15.8489 m2 (large)
Launch date: November 11, 1982
Source: United States (US)
Launch site: AIR FORCE EASTERN TEST RANGE (AFETR)
aabbcc
Your satellite tracking list
Your tracking list is empty




NASA's NSSDC Master Catalog

Two Line Element Set (TLE):
1 13651U 82110B   22019.86932728 -.00000166  00000-0  00000-0 0  9991
2 13651  14.1772 346.5567 0009359  71.3330 288.9456  0.99921705 30455
Source of the keplerian elements: AFSPC